Sumter, SC

6:46 PM EDT on May 24, 2017 (GMT -0400)
Sumter Municipal

Weather History for KSMS - December, 2011

Change the Weather History Date:

Sunday, December 4, 2011

  Actual Average Record
Temperature  
Mean Temperature 54 °F -  
Max Temperature 68 °F 62 °F 84 °F (2015)
Min Temperature 39 °F 37 °F 28 °F (2010)
Degree Days  
Heating Degree Days 12    
Growing Degree Days 4 (Base 50)    
Moisture  
Dew Point 43 °F    
Average Humidity 76    
Maximum Humidity 100    
Minimum Humidity 43    
Precipitation  
Precipitation 0.00 in - - ()
Sea Level Pressure  
Sea Level Pressure 30.42 in    
Wind  
Wind Speed 2 mph (ENE)    
Max Wind Speed 7 mph    
Max Gust Speed -    
Visibility 10 miles    
Events Rain    
Averages and records for this station are not official NWS values.
T = Trace of Precipitation, MM = Missing Value Source: NWS Daily Summary

Daily Weather History Graph

Daily Weather History Graph

Search for Another Location

Airport or City:

Trip Planner

Search our weather history database for the weather conditions in past years. The results will help you decide how hot, cold, wet, or windy it might be!

Date:

Astronomy

Dec. 04, 2011 Rise Set
Actual Time 7:11 AM EST 5:12 PM EST
Civil Twilight 6:43 AM EST 5:39 PM EST
Nautical Twilight 6:12 AM EST 6:10 PM EST
Astronomical Twilight 5:42 AM EST 6:40 PM EST
Moon 1:31 PM EST (12/4) 1:46 AM EST (12/4)
Length of Visible Light 10h 55m
Length of Day
10h 01m
Waxing Gibbous, 71% of the Moon is Illuminated
Dec 4
Waxing Gibbous
Dec 10
Full
Dec 17
Last Quarter
Dec 24
New
Jan 1
First Quarter

Hourly Weather History & Observations

Time (EST) Temp. Windchill Dew Point Humidity Pressure Visibility Wind Dir Wind Speed Gust Speed Precip Events Conditions
12:15 AM 39.2 °F - 37.4 °F 93% 30.51 in 10.0 mi Calm Calm - N/A Rain Light Rain
12:35 AM 41.0 °F - 37.4 °F 87% 30.51 in 10.0 mi Calm Calm - N/A Rain Light Rain
12:55 AM 41.0 °F - 37.4 °F 87% 30.50 in 10.0 mi Calm Calm - N/A Rain Light Rain
1:15 AM 41.0 °F - 37.4 °F 87% 30.50 in 10.0 mi Calm Calm - N/A Rain Light Rain
1:35 AM 41.0 °F - 37.4 °F 87% 30.49 in 10.0 mi Calm Calm - N/A Rain Light Rain
1:55 AM 39.2 °F - 37.4 °F 93% 30.49 in 10.0 mi Calm Calm - N/A Rain Light Rain
2:15 AM 41.0 °F - 37.4 °F 87% 30.49 in 10.0 mi Calm Calm - N/A Rain Light Rain
2:35 AM 39.2 °F - 37.4 °F 93% 30.49 in 10.0 mi Calm Calm - N/A Rain Light Rain
2:55 AM 39.2 °F - 37.4 °F 93% 30.48 in 10.0 mi Calm Calm - N/A Rain Rain
3:35 AM 41.0 °F - 37.4 °F 87% 30.47 in 10.0 mi Calm Calm - N/A   Partly Cloudy
3:55 AM 41.0 °F - 37.4 °F 87% 30.47 in 10.0 mi Calm Calm - N/A   Clear
4:15 AM 39.2 °F - 37.4 °F 93% 30.47 in 8.0 mi Calm Calm - N/A   Partly Cloudy
4:35 AM 41.0 °F - 39.2 °F 93% 30.47 in 10.0 mi Calm Calm - N/A   Partly Cloudy
4:55 AM 41.0 °F 38.0 °F 39.2 °F 93% 30.47 in 10.0 mi North 4.6 mph - N/A   Scattered Clouds
5:15 AM 41.0 °F 39.0 °F 39.2 °F 93% 30.47 in 9.0 mi NNE 3.5 mph - N/A   Scattered Clouds
5:35 AM 41.0 °F - 39.2 °F 93% 30.47 in 8.0 mi Calm Calm - N/A   Mostly Cloudy
5:55 AM 41.0 °F - 39.2 °F 93% 30.48 in 9.0 mi Calm Calm - N/A   Mostly Cloudy
6:15 AM 42.8 °F 39.3 °F 39.2 °F 87% 30.48 in 9.0 mi NNE 5.8 mph - N/A   Mostly Cloudy
6:35 AM 44.6 °F - 41.0 °F 87% 30.48 in 8.0 mi Calm Calm - N/A   Mostly Cloudy
7:15 AM 44.6 °F 42.2 °F 41.0 °F 87% 30.48 in 9.0 mi NE 4.6 mph - N/A   Overcast
7:35 AM 44.6 °F - 41.0 °F 87% 30.48 in 8.0 mi Calm Calm - N/A   Mostly Cloudy
7:55 AM 44.6 °F 42.2 °F 41.0 °F 87% 30.48 in 8.0 mi NE 4.6 mph - N/A   Mostly Cloudy
8:15 AM 44.6 °F 41.4 °F 41.0 °F 87% 30.48 in 8.0 mi NE 5.8 mph - N/A   Mostly Cloudy
8:35 AM 46.4 °F 43.5 °F 41.0 °F 81% 30.48 in 8.0 mi NE 5.8 mph - N/A Rain Light Rain
8:55 AM 46.4 °F 43.5 °F 41.0 °F 81% 30.48 in 8.0 mi ENE 5.8 mph - N/A   Clear
9:15 AM 48.2 °F - 41.0 °F 76% 30.49 in 9.0 mi ENE 4.6 mph - N/A   Partly Cloudy
9:35 AM 50.0 °F - 41.0 °F 71% 30.49 in 9.0 mi NE 6.9 mph - N/A Rain Light Rain
9:55 AM 53.6 °F - 42.8 °F 67% 30.49 in 10.0 mi NNE 4.6 mph - N/A   Scattered Clouds
10:15 AM 55.4 °F - 42.8 °F 63% 30.49 in 10.0 mi Calm Calm - N/A Rain Light Rain
10:35 AM 57.2 °F - 42.8 °F 59% 30.49 in 10.0 mi East 5.8 mph - N/A Rain Light Rain
11:15 AM 59.0 °F - 42.8 °F 55% 30.46 in 10.0 mi ENE 6.9 mph - N/A Rain Light Rain
11:35 AM 60.8 °F - 42.8 °F 52% 30.45 in 10.0 mi East 6.9 mph - N/A Rain Light Rain
11:55 AM 62.6 °F - 42.8 °F 48% 30.45 in 10.0 mi NE 3.5 mph - N/A   Clear
12:15 PM 62.6 °F - 44.6 °F 52% 30.43 in 10.0 mi ENE 5.8 mph - N/A   Clear
12:35 PM 62.6 °F - 44.6 °F 52% 30.41 in 10.0 mi ENE 6.9 mph - N/A Rain Light Rain
12:55 PM 64.4 °F - 44.6 °F 49% 30.40 in 10.0 mi East 5.8 mph - N/A   Clear
1:15 PM 66.2 °F - 44.6 °F 46% 30.40 in 10.0 mi East 5.8 mph - N/A   Clear
1:35 PM 66.2 °F - 44.6 °F 46% 30.38 in 10.0 mi ESE 5.8 mph - N/A Rain Light Rain
1:55 PM 66.2 °F - 44.6 °F 46% 30.37 in 10.0 mi ESE 4.6 mph - N/A Rain Light Rain
2:15 PM 68.0 °F - 44.6 °F 43% 30.36 in 10.0 mi ENE 5.8 mph - N/A Rain Light Rain
2:35 PM 68.0 °F - 46.4 °F 46% 30.35 in 10.0 mi East 4.6 mph - N/A   Clear
2:55 PM 68.0 °F - 46.4 °F 46% 30.34 in 10.0 mi ESE 5.8 mph - N/A Rain Light Rain
3:15 PM 68.0 °F - 48.2 °F 49% 30.34 in 10.0 mi ESE 6.9 mph - N/A Rain Heavy Rain
3:35 PM 68.0 °F - 48.2 °F 49% 30.33 in 10.0 mi ESE 5.8 mph - N/A   Clear
3:55 PM 68.0 °F - 50.0 °F 52% 30.33 in 10.0 mi ESE 5.8 mph - N/A   Clear
4:15 PM 68.0 °F - 50.0 °F 52% 30.33 in 10.0 mi Calm Calm - N/A Rain Light Rain
4:35 PM 66.2 °F - 51.8 °F 60% 30.34 in 10.0 mi East 3.5 mph - N/A Rain Light Rain
4:55 PM 66.2 °F - 51.8 °F 60% 30.34 in 10.0 mi Calm Calm - N/A   Clear
5:15 PM 64.4 °F - 51.8 °F 64% 30.34 in 10.0 mi Calm Calm - N/A   Clear
5:35 PM 60.8 °F - 50.0 °F 68% 30.35 in 10.0 mi Calm Calm - N/A Rain Light Rain
5:55 PM 57.2 °F - 50.0 °F 77% 30.35 in 10.0 mi Calm Calm - N/A Rain Light Rain
6:15 PM 55.4 °F - 50.0 °F 82% 30.35 in 10.0 mi Calm Calm - N/A Rain Light Rain
6:35 PM 53.6 °F - 50.0 °F 88% 30.35 in 10.0 mi Calm Calm - N/A   Partly Cloudy
7:15 PM 51.8 °F - 50.0 °F 94% 30.35 in 10.0 mi Calm Calm - N/A Rain Light Rain
7:35 PM 50.0 °F - 48.2 °F 94% 30.35 in 10.0 mi Calm Calm - N/A Rain Light Rain
7:55 PM 50.0 °F - 48.2 °F 94% 30.35 in 10.0 mi Calm Calm - N/A Rain Light Rain
8:15 PM 48.2 °F - 48.2 °F 100% 30.35 in 10.0 mi Calm Calm - N/A Rain Light Rain
8:35 PM 48.2 °F - 46.4 °F 93% 30.35 in 10.0 mi Calm Calm - N/A Rain Light Rain
8:55 PM 48.2 °F - 48.2 °F 100% 30.35 in 10.0 mi Calm Calm - N/A   Clear
9:15 PM 48.2 °F - 46.4 °F 93% 30.36 in 10.0 mi Calm Calm - N/A   Clear
9:35 PM 46.4 °F - 46.4 °F 100% 30.36 in 9.0 mi Calm Calm - N/A Rain Light Rain
9:55 PM 46.4 °F - 44.6 °F 93% 30.36 in 10.0 mi Calm Calm - N/A Rain Light Rain
10:15 PM 46.4 °F - 44.6 °F 93% 30.37 in 9.0 mi Calm Calm - N/A Rain Light Rain
10:35 PM 46.4 °F - 44.6 °F 93% 30.37 in 10.0 mi Calm Calm - N/A   Clear
10:55 PM 44.6 °F - 44.6 °F 100% 30.36 in 10.0 mi Calm Calm - N/A Rain Light Rain
11:15 PM 46.4 °F - 44.6 °F 93% 30.36 in 10.0 mi Calm Calm - N/A Rain Light Rain
11:35 PM 46.4 °F - 44.6 °F 93% 30.36 in 9.0 mi Calm Calm - N/A Rain Light Rain
11:55 PM 44.6 °F - 44.6 °F 100% 30.35 in 9.0 mi Calm Calm - N/A Rain Light Rain